Regional Weather Roundup
Issued by NWS Kansas City/Pleasant Hill, MO

Home | Current Version | Previous Version | Graphics & Text | Print | Product List | Glossary Off
Versions: 1 2 3 4 5 6 7 8 9 10 11 12 13 14 15 16 17 18 19 20 21 22 23 24 25 26 27 28 29 30 31 32 33 34 35 36 37 38 39 40 41 42 43 44 45 46 47 48 49 50

610
ASUS43 KEAX 041710
RWREAX

WEATHER ROUNDUP FOR EASTERN KANSAS AND NORTHWEST MISSOURI
NATIONAL WEATHER SERVICE KANSAS CITY/PLEASANT HILL MO
1100 AM CST SUN DEC 04 2016

KSZ040-057-103>105-MOZ028-029-037-043-041800-
...KANSAS CITY METROPOLITAN AREA...

CITY           SKY/WX    TMP DP  RH WIND       PRES   REMARKS
K.C. INTL      CLOUDY    41  36  82 W7        30.01S
K.C. DOWNTOWN  CLOUDY    42  38  85 W6        30.01F
LEES SUMMIT    CLOUDY    40  38  93 W10       30.01F WCI  33
OLATHE - IXD   CLOUDY    41  38  89 W10       30.02S WCI  35
OLATHE - OJC   CLOUDY    40  37  89 W7        30.01S
LAWRENCE       CLOUDY    42  39  89 W13       30.03F

$$

MOZ001>008-011>017-020>025-030>033-038>040-044>046-053-054-041800-
...NORTHERN AND CENTRAL MISSOURI...

CITY           SKY/WX    TMP DP  RH WIND       PRES   REMARKS
ST. JOSEPH     CLOUDY    39  35  86 W10       30.02S WCI  32
MOSBY          CLOUDY    39  36  87 W8        30.02S WCI  34
WARRENSBURG    CLOUDY    37  37 100 W8        30.02S WCI  31
WHITEMAN AFB   CLOUDY    39  39 100 W7        30.00F WCI  34
CLINTON        CLOUDY    41  39  93 W8        30.03S
SEDALIA        CLOUDY    37  35  92 W5        30.03S WCI  33
WARSAW         NOT AVBL
CHILLICOTHE      N/A     34  33  96 SW3       30.02F
KIRKSVILLE     LGT SNOW  33  33 100 CALM      30.00F FOG

$$

MOZ041-047>049-056>058-063>065-088>090-097-041800-
...EASTERN AND SOUTHERN MISSOURI...

CITY           SKY/WX    TMP DP  RH WIND       PRES   REMARKS
ST. LOUIS INTL LGT RAIN  40  36  86 S5        29.99F FOG
SPIRIT OF STL  LGT RAIN  39  38  96 SW3       30.00F FOG
COLUMBIA       LGT SNOW  33  32  96 SW5       30.00F VSB 1   WCI  29
JEFFERSON CITY RAIN      36  34  92 SW5       30.02F FOG     WCI  32
ROLLA          LGT SNOW  35  35 100 SW8       29.97F FOG     WCI  29
OSAGE BEACH    LGT RAIN  38  37  97 W6        30.02S WCI  33
SPRINGFIELD    CLOUDY    43  39  86 W10       30.00S
BRANSON        CLOUDY    39  39 100 CALM      30.03S FOG
JOPLIN         CLOUDY    44  42  93 NW13      30.05F
WEST PLAINS    CLOUDY    39  38  96 SW6       30.02S WCI  35

$$

IAZ060-094-KSZ022-034>040-054-083-096-NEZ052-066-093-041800-
...KANSAS...SOUTHEAST NEBRASKA AND IOWA...

CITY           SKY/WX    TMP DP  RH WIND       PRES   REMARKS
TOPEKA         CLOUDY    41  37  86 W9        30.03F
MANHATTAN      CLOUDY    35  33  92 W7        30.06S WCI  29
EMPORIA        CLOUDY    40  37  89 W14       30.03F WCI  32
CHANUTE        CLOUDY    45  39  79 W12       30.04F
WICHITA        PTSUNNY   38  37  97 NW7       30.06F WCI  33
OMAHA          PTSUNNY   36  31  82 SW7       29.98F WCI  30
LINCOLN        CLOUDY    33  31  92 SW9       30.01S WCI  25
FALLS CITY     CLOUDY    35  34  96 W10       30.02F WCI  27
LAMONI         CLOUDY    33  33 100 SW7       29.97F WCI  27
DES MOINES     CLOUDY    35  33  92 SW7       29.97F WCI  29

$$





USA.gov is the U.S. government's official web portal to all federal, state and local government web resources and services.